Regional Weather Roundup
Issued by NWS

Home | Current Version | Previous Version | Text Only | Print | Product List | Glossary On
Versions: 1 2 3 4 5 6 7 8 9 10 11 12 13 14 15 16 17 18 19 20 21 22 23 24 25 26 27 28 29 30 31 32 33 34 35 36 37 38 39 40 41 42 43 44 45 46 47 48 49 50
000
ASUS43 KDTX 311610
RWRMI
MICHIGAN HOURLY REGIONAL WEATHER ROUNDUP
NATIONAL WEATHER SERVICE DETROIT/PONTIAC MI
1200 PM EDT FRI OCT 31 2014

NOTE: "FAIR" INDICATES FEW OR NO CLOUDS BELOW 12,000 FEET WITH NO
SIGNIFICANT WEATHER AND/OR OBSTRUCTION TO VISIBILITY.

MIZ047>049-052>055-059>063-066>070-074>076-081>083-311700-
SOUTHEAST LOWER MICHIGAN

CITY           SKY/WX    TMP DP  RH WIND       PRES   REMARKS
ADRIAN         CLOUDY    41  38  89 N8        29.90S
ALMA           LGT RAIN  40  37  91 N20G29    29.96R
ANN ARBOR      LGT RAIN  43  37  79 N9        29.89S
BAD AXE        MIX PCPN  42  42 100 N6        29.91S
DETROIT CITY   LGT RAIN  46  41  82 W3        29.89S
DETROIT        LGT RAIN  43  39  86 W9        29.89S
FLINT          LGT RAIN  43  38  82 N10       29.91S
GROSSE ILE     RAIN      45  43  93 W5        29.87S
HILLSDALE      CLOUDY    40  39  95 NW5       29.90S
HOWELL         LGT RAIN  40  38  93 N6        29.91R

CITY           SKY/WX    TMP DP  RH WIND       PRES   REMARKS
JACKSON        CLOUDY    41  38  89 N8        29.90S
LAMBERTVILLE   LGT RAIN  43  39  87 NW8       29.90R
LANSING        LGT RAIN  41  38  89 N8        29.93R
LAPEER         NOT AVBL
MASON          LGT RAIN  40  38  93 N5        29.91S
MONROE         RAIN      45  41  87 NW6       29.87S
MT. CLEMENS    LGT RAIN  44  44  99 NW3       29.86S
PONTIAC        LGT RAIN  41  37  86 NW10      29.88R
PORT HOPE        N/A     44  41  89 N30G38    29.90R
PORT HURON     LGT RAIN  43  41  93 CALM      29.89S
TRI CITIES     LGT RAIN  39  35  86 N24G35    29.96R FOG
YPSILANTI      LGT RAIN  46  39  76 NW9       29.90R
$$
MIZ043>046-050>051-056>058-064>065-071>073-077>080-311700-
SOUTHWEST LOWER MICHIGAN

CITY           SKY/WX    TMP DP  RH WIND       PRES   REMARKS
BATTLE CREEK   CLOUDY    41  35  79 N12       29.93R
BENTON HARBOR  CLOUDY    41  37  86 N13G29    29.95S
BIG RAPIDS     LGT SNOW  35  34  99 N15G26    30.03R
COLDWATER      CLOUDY    42  38  86 N5        29.92S
HOLLAND        LGT RAIN  39  34  82 N15G29    29.99R
GRAND RAPIDS   LGT SNOW  37  35  92 N17G29    29.97R FOG
KALAMAZOO      CLOUDY    42  34  73 N12       29.93S
MARSHALL       CLOUDY    40  37  87 W7        29.91S
MUSKEGON       LGT SNOW  37  32  82 N24G35    30.05R
$$
MIZ016>042-311700-
NORTHERN LOWER MICHIGAN

CITY           SKY/WX    TMP DP  RH WIND       PRES   REMARKS
ALPENA         LGT SNOW  33  31  92 N25       30.09R VSB 1
BEAVER ISLAND  CLOUDY    35  26  69 NE18G29   30.23R
BELLAIRE       CLOUDY    35  28  77 N18G29    30.17R
CADILLAC       CLOUDY    31  28  88 N14G23    30.05R FOG
CHARLEVOIX     CLOUDY    33  26  75 N23G33    30.23R
FRANKFORT      CLOUDY    36  31  83 N15G31    30.17R HAZE
GAYLORD        LGT SNOW  30  27  88 N12G24    30.10R VSB 1
GRAYLING       CLOUDY    33  30  90 N18G29    30.08R FOG
HARBOR SPRINGS CLOUDY    32  26  80 NE10G17   30.19R
HOUGHTON LAKE  LGT SNOW  33  30  88 N22G29    30.05R FOG
MANISTEE       CLOUDY    34  30  86 N14G23    30.14R
OSCODA         LGT RAIN  36  34  94 N21G31    30.01R
PELLSTON       CLOUDY    32  26  78 N17       30.20R
TRAVERSE CITY  FLURRIES  36  26  67 NE24G37   30.16R
$$
MIZ007>008-015-311700-
EASTERN UPPER MICHIGAN

CITY           SKY/WX    TMP DP  RH WIND       PRES   REMARKS
KINROSS        CLOUDY    32  25  74 N16G25    30.22R
MACKINAC ISLAN CLOUDY    33  25  73 N17G35    30.20R
NEWBERRY       CLOUDY    32  24  72 N24G31    30.25R
S. S. MARIE    MOSUNNY   33  21  61 NE16G28   30.23R
$$
MIZ004>006-011>014-085-311700-
CENTRAL UPPER MICHIGAN

CITY           SKY/WX    TMP DP  RH WIND       PRES   REMARKS
MANISTIQUE     CLOUDY    36  22  57 N25G38    30.27R
ESCANABA       PTSUNNY   32  25  74 N15G29    30.32R
MENOMINEE      PTSUNNY   36  21  55 NE21G37   30.30R
SAWYER-GWINN   LGT SNOW  30  21  69 N18G26    30.32R
$$
MIZ001>003-009>011-084-311700-
WESTERN UPPER MICHIGAN

CITY           SKY/WX    TMP DP  RH WIND       PRES   REMARKS
IRON MOUNTAIN  CLOUDY    31  23  72 N21G28    30.34R
HOUGHTON       CLOUDY    31  20  63 N14       30.43R
COPPER HARBOR    N/A     35  26  69 NE25G32   30.43R
IRONWOOD       CLOUDY    30  25  80 N12G20    30.46R
$$

ABBREVIATIONS USED IN REMARKS
   TC - TEMPERATURE IN CELSIUS
  WCI - WIND CHILL INDEX
   HX - HEAT INDEX
  VSB - VISIBILITY




USA.gov is the U.S. government's official web portal to all federal, state and local government web resources and services.